Regional Weather Roundup
Issued by NWS

Home | Current Version | Previous Version | Text Only | Print | Product List | Glossary Off
Versions: 1 2 3 4 5 6 7 8 9 10 11 12 13 14 15 16 17 18 19 20 21 22 23 24 25 26 27 28 29 30 31 32 33 34 35 36 37 38 39 40 41 42 43 44 45 46 47 48 49 50

000
ASUS43 KLOT 202210
RWRIL

ILLINOIS REGIONAL WEATHER ROUNDUP
NATIONAL WEATHER SERVICE CHICAGO/ROMEOVILLE IL
500 PM CDT MON OCT 20 2014

NOTE: "FAIR" INDICATES FEW OR NO CLOUDS BELOW 12,000 FEET WITH NO
SIGNIFICANT WEATHER AND/OR OBSTRUCTIONS TO VISIBILITY.

* THESE STATIONS ARE NOT UNDER NWS QUALITY CONTROL. THEY ALSO MAY NOT
  REPORT WEATHER SUCH AS PRECIPITATION OR FOG.

ILZ001-002-007-009-015-016-024-202300-
NORTHWEST ILLINOIS

CITY           SKY/WX    TMP DP  RH WIND       PRES   REMARKS
MOLINE         SUNNY     67  43  41 NW14G20   29.93R
STERLING*      SUNNY     64  45  48 N10       29.93R
SAVANNA*       MOSUNNY   66  41  40 NW8G16    29.93R
$$

ILZ003-004-008-010-011-017-018-202300-
NORTH CENTRAL ILLINOIS

CITY           SKY/WX    TMP DP  RH WIND       PRES   REMARKS
ROCKFORD       PTSUNNY   60  41  49 N12       29.94R
FREEPORT*      PTSUNNY   60  42  50 N8        29.94R
ROCHELLE*      CLOUDY    61  41  47 NW12      29.92R
DE KALB*       CLOUDY    58  41  53 N9G20     29.92R
PERU*          PTSUNNY   63  43  48 NW14      29.92R
$$

ILZ005-006-012>014-019>023-202300-
NORTHEAST ILLINOIS

CITY           SKY/WX    TMP DP  RH WIND       PRES   REMARKS
CHICAGO-OHARE  PTSUNNY   56  47  71 NE10      29.91R
CHICAGO-MIDWAY PTSUNNY   59  49  69 N13       29.90R
AURORA         PTSUNNY   60  41  49 N15       29.91R
LANSING*       CLOUDY    56  49  76 NE9       29.90R
JOLIET*        PTSUNNY   62  43  49 N10G20    29.91R
WAUKEGAN       CLOUDY    53  45  74 N3        29.91R
DUPAGE AIRPORT CLOUDY    60  42  51 N14       29.91R
KANKAKEE*      MOSUNNY   63  47  55 NW8       29.89R
WHEELING       CLOUDY    56  46  69 NE7       29.93R
MORRIS*        PTSUNNY   64  45  50 N8        29.90R
ROMEOVILLE*    MOSUNNY   60  40  47 N14G22    29.91R
NORTHERLY ISL    N/A     55  48  77 MISG        N/A
$$

LMZ740>746-202300-
SOUTHERN LAKE MICHIGAN

STATION/POSITION SKY/WX   TEMP    WIND        PRES    VSBY  WAVE
                          AIR SEA DIR/SP/G                  HT/PER
                          (F)     (DEG/KT/KT) (MB)    (MI)  (FT/S)
SOUTHERN BUOY              53 55  340/ 17/ 19 1012.3R         3/ 5
WAUKEGAN HARBOR            53      10/ 10/ 14   N/A
HARRISON CRIB              54     350/ 17/ 19   N/A
BURNHAM HARBOR             55      10/ 10/ 14   N/A
CALUMET HARBOR             55     350/ 10/ 13 1011.6R
MICHIGAN CITY              53     350/ 18/ 20   N/A
$$

ILZ025>027-034>036-040-047-049-050-058-095>099-202300-
WEST-CENTRAL ILLINOIS

CITY           SKY/WX    TMP DP  RH WIND       PRES   REMARKS
QUINCY         SUNNY     67  42  40 NW14      29.98R
GALESBURG*     SUNNY     65  44  45 NW13G18   29.95R
MACOMB*        SUNNY     67  43  41 NW17      29.98R
JACKSONVILLE*  SUNNY     70  42  37 W15G21    29.95S
PITTSFIELD*    SUNNY     69  42  36 NW12G17   29.97S
$$

ILZ028>032-037-038-041>044-048-051>054-059>061-202300-
CENTRAL ILLINOIS

CITY           SKY/WX    TMP DP  RH WIND       PRES   REMARKS
PONTIAC        MOSUNNY   66  45  45 NW14      29.91R
BLOOMINGTON    MOSUNNY   65  44  46 NW15      29.93R
DECATUR        SUNNY     66  44  45 NW16G23   29.92R
PEORIA         SUNNY     68  43  40 NW9       29.94R
LACON*         SUNNY     64  43  45 NW10G16   29.92R
LINCOLN*       SUNNY     68  43  40 NW10G17   29.91R
SPRINGFIELD    SUNNY     69  44  40 NW13      29.94R
TAYLORVILLE    SUNNY     68  43  40 NW10      29.93S
$$

ILZ033-039-045-046-055>057-062-063-202300-
EAST-CENTRAL ILLINOIS

CITY           SKY/WX    TMP DP  RH WIND       PRES   REMARKS
CHAMPAIGN      MOSUNNY   66  45  46 NW14      29.91R
DANVILLE*      MOSUNNY   65  47  51 NW14G21   29.86R
RANTOUL*       MOSUNNY   67  43  41 NW14G22   29.91R
MATTOON        SUNNY     67  45  45 NW16      29.90R
PARIS*         PTSUNNY   68  47  46 NW13G22   29.89R
$$

ILZ079-100>102-202300-
SOUTHWEST ILLINOIS

CITY           SKY/WX    TMP DP  RH WIND       PRES   REMARKS
ALTON          SUNNY     72  32  23 W14       29.95R
BELLEVILLE     SUNNY     71  42  35 NW14      29.93S
CAHOKIA*       SUNNY     73  44  35 W9        29.94S
SPARTA*        SUNNY     73  47  40 NW10      29.94R
$$

ILZ064>066-069>071-074>076-080>082-084>086-088>090-092>094-202300-
SOUTH-CENTRAL ILLINOIS

CITY           SKY/WX    TMP DP  RH WIND       PRES   REMARKS
CARBONDALE     SUNNY     74  47  38 W7        29.92S
CAIRO*         SUNNY     74  55  51 SW6       29.94S
EFFINGHAM*     SUNNY     70  38  31 NW12G18   29.91R
MARION         MOSUNNY   75  50  41 W12       29.92S
MT. VERNON     SUNNY     72  46  40 W5        29.92S
CENTRALIA*     SUNNY     71  41  34 NW13      29.92R
SALEM*         SUNNY     73  43  34 NW15G23   29.92R
METROPOLIS*    SUNNY     72  56  56 SW7       29.92F
$$

ILZ067-068-072-073-078-083-087-091-202300-
SOUTHEAST ILLINOIS

CITY           SKY/WX    TMP DP  RH WIND       PRES   REMARKS
LAWRENCEVILLE  SUNNY     72  44  36 NW17      29.88S
FLORA*         SUNNY     71  41  33 NW12G17   29.91R
FAIRFIELD*     SUNNY     73  44  35 NW6       29.89R
HARRISBURG*    SUNNY     73  54  52 W9        29.91S
ROBINSON*      SUNNY     72  45  37 NW12G18   29.89R
CARMI*         PTSUNNY   74  53  46 W8        29.89S
$$

ABBREVIATIONS USED IN REMARKS
   TC - TEMPERATURE IN CELSIUS
  WCI - WIND CHILL INDEX
   HX - HEAT INDEX
  VSB - VISIBILITY
$$




USA.gov is the U.S. government's official web portal to all federal, state and local government web resources and services.